Provo, UT

6:56 PM MDT on April 26, 2018 (GMT -0600)
Provo Municipal

Weather History for KPVU - March, 2014

Change the Weather History Date:

Tuesday, March 25, 2014

  Actual Average Record
Temperature  
Mean Temperature 51 °F -  
Max Temperature 69 °F 54 °F 73 °F (2004)
Min Temperature 33 °F 32 °F 19 °F (2013)
Degree Days  
Heating Degree Days 14    
Growing Degree Days 1 (Base 50)    
Moisture  
Dew Point 25 °F    
Average Humidity 47    
Maximum Humidity 70    
Minimum Humidity 15    
Precipitation  
Precipitation 0.00 in - - ()
Sea Level Pressure  
Sea Level Pressure 29.98 in    
Wind  
Wind Speed 4 mph (South)    
Max Wind Speed 16 mph    
Max Gust Speed -    
Visibility 12 miles    
Events      
Averages and records for this station are not official NWS values.
T = Trace of Precipitation, MM = Missing Value Source: NWS Daily Summary

Daily Weather History Graph

Daily Weather History Graph

Search for Another Location

Airport or City:

Astronomy

Mar. 25, 2014 Rise Set
Actual Time 7:21 AM MDT 7:44 PM MDT
Civil Twilight 6:54 AM MDT 8:11 PM MDT
Nautical Twilight 6:22 AM MDT 8:43 PM MDT
Astronomical Twilight 5:50 AM MDT 9:16 PM MDT
Moon 3:47 AM MDT (3/25) 2:18 PM MDT (3/25)
Length of Visible Light 13h 16m
Length of Day
12h 22m
Waning Crescent, 31% of the Moon is Illuminated
Mar 25
Waning Crescent
Mar 30
New
Apr 7
First Quarter
Apr 15
Full
Apr 22
Last Quarter

Hourly Weather History & Observations

Time (MDT) Temp. Windchill Dew Point Humidity Pressure Visibility Wind Dir Wind Speed Gust Speed Precip Events Conditions
12:15 AM 41.0 °F - 26.6 °F 57% 30.19 in 10.0 mi Calm Calm - N/A   Clear
12:35 AM 39.2 °F - 28.4 °F 65% 30.19 in 10.0 mi Calm Calm - N/A   Clear
12:55 AM 37.4 °F - 26.6 °F 65% 30.19 in 10.0 mi Calm Calm - N/A   Clear
1:15 AM 39.2 °F - 26.6 °F 61% 30.19 in 10.0 mi Calm Calm - N/A   Clear
1:35 AM 37.4 °F 33.8 °F 26.6 °F 65% 30.18 in 10.0 mi South 4.6 mph - N/A   Clear
1:55 AM 37.4 °F 34.9 °F 26.6 °F 65% 30.18 in 10.0 mi SE 3.5 mph - N/A   Clear
2:15 AM 39.2 °F 35.0 °F 26.6 °F 61% 30.18 in 10.0 mi ESE 5.8 mph - N/A   Clear
2:35 AM 39.2 °F 35.0 °F 24.8 °F 56% 30.17 in 10.0 mi South 5.8 mph - N/A   Clear
2:55 AM 37.4 °F 33.8 °F 23.0 °F 56% 30.16 in 10.0 mi NW 4.6 mph - N/A   Clear
3:15 AM 33.8 °F 27.7 °F 24.8 °F 70% 30.16 in 10.0 mi South 6.9 mph - N/A   Clear
3:35 AM 35.6 °F 32.8 °F 26.6 °F 70% 30.15 in 10.0 mi SSW 3.5 mph - N/A   Clear
3:55 AM 41.0 °F 39.0 °F 19.4 °F 42% 30.14 in 10.0 mi SSW 3.5 mph - N/A   Clear
4:15 AM 39.2 °F 34.2 °F 21.2 °F 49% 30.13 in 10.0 mi SSE 6.9 mph - N/A   Clear
4:35 AM 37.4 °F 33.8 °F 24.8 °F 60% 30.12 in 10.0 mi SW 4.6 mph - N/A   Clear
4:55 AM 37.4 °F 33.8 °F 24.8 °F 60% 30.12 in 10.0 mi SW 4.6 mph - N/A   Clear
5:15 AM 35.6 °F 31.7 °F 24.8 °F 65% 30.12 in 10.0 mi SW 4.6 mph - N/A   Clear
5:35 AM 35.6 °F 32.8 °F 21.2 °F 56% 30.12 in 10.0 mi West 3.5 mph - N/A   Clear
5:55 AM 33.8 °F 28.6 °F 21.2 °F 60% 30.12 in 10.0 mi South 5.8 mph - N/A   Clear
6:15 AM 33.8 °F 28.6 °F 23.0 °F 65% 30.12 in 10.0 mi SSE 5.8 mph - N/A   Clear
6:35 AM 33.8 °F - 23.0 °F 65% 30.12 in 10.0 mi Calm Calm - N/A   Clear
6:52 AM 33.8 °F - 24.8 °F 70% 30.12 in 15.0 mi Calm Calm - N/A   Partly Cloudy
7:57 AM 33.8 °F - 21.2 °F 60% 30.10 in 15.0 mi Calm Calm - N/A   Partly Cloudy
8:57 AM 41.0 °F - 24.8 °F 53% 30.09 in 15.0 mi Calm Calm - N/A   Partly Cloudy
9:48 AM 44.6 °F - 21.2 °F 39% 30.09 in 15.0 mi Calm Calm - N/A   Clear
10:48 AM 50.0 °F - 26.6 °F 40% 30.07 in 15.0 mi SW 5.8 mph - N/A   Clear
11:50 AM 50.0 °F - 30.2 °F 47% 30.04 in 15.0 mi Calm Calm - N/A   Clear
12:58 PM 55.4 °F - 26.6 °F 33% 29.99 in 15.0 mi West 6.9 mph - N/A   Clear
1:50 PM 57.2 °F - 28.4 °F 33% 29.95 in 15.0 mi Calm Calm - N/A   Clear
2:46 PM 64.4 °F - 24.8 °F 22% 29.89 in 15.0 mi SW 4.6 mph - N/A   Clear
3:46 PM 69.8 °F - 19.4 °F 15% 29.84 in 15.0 mi SE 6.9 mph - N/A   Clear
4:53 PM 69.8 °F - 21.2 °F 16% 29.79 in 15.0 mi Variable 3.5 mph - N/A   Clear
5:47 PM 68.0 °F - 17.6 °F 15% 29.76 in 15.0 mi Variable 3.5 mph - N/A   Clear
7:47 PM 51.8 °F - 17.6 °F 26% 29.69 in 15.0 mi Variable 3.5 mph - N/A   Scattered Clouds
8:55 PM 55.4 °F - 28.4 °F 36% 29.66 in 15.0 mi ESE 8.1 mph - N/A   Scattered Clouds
9:15 PM 51.8 °F - 30.2 °F 44% 29.66 in 10.0 mi SSE 10.4 mph - N/A   Clear
9:35 PM 51.8 °F - 30.2 °F 44% 29.66 in 10.0 mi SE 12.7 mph - N/A   Clear
9:55 PM 53.6 °F - 30.2 °F 41% 29.65 in 10.0 mi SE 13.8 mph - N/A   Clear
10:15 PM 55.4 °F - 26.6 °F 33% 29.65 in 10.0 mi SE 16.1 mph - N/A   Clear
10:35 PM 57.2 °F - 24.8 °F 29% 29.65 in 10.0 mi SE 15.0 mph - N/A   Clear
10:55 PM 55.4 °F - 24.8 °F 31% 29.65 in 10.0 mi SE 11.5 mph - N/A   Clear
11:15 PM 55.4 °F - 24.8 °F 31% 29.64 in 10.0 mi SE 12.7 mph - N/A   Clear
11:35 PM 55.4 °F - 24.8 °F 31% 29.63 in 10.0 mi SE 12.7 mph - N/A   Clear
11:55 PM 55.4 °F - 21.2 °F 26% 29.63 in 10.0 mi SE 10.4 mph - N/A   Clear